Flag for Germany Weather past 2 weeks in Marl, North Rhine-Westphalia, Germany

Now
63 °F

Scattered clouds.


Feels Like: 63 °F
Forecast: 48 / 68 °F
Wind: 2 mph from North

Location: Dortmund / Wickede

Current Time: Sep 1, 2014 at 8:52:57 PM

Latest Report: Sep 1, 2014 at 7:50 PM


Visibility: N/A

Pressure: 30.12 "Hg

Humidity: 68%

Dew point: 52 °F

Location of MarlLocation

Historic Weather in Marl — Graph

°F

Marl temperature yesterday

Maximum temperature yesterday: 64 °F (at 12:20 PM)
Minimum temperature yesterday: 54 °F (at 6:20 AM)
Average temperature yesterday: 58 °F

Past Weeks' High & Low Weather Summary

 TemperatureHumidityPressure
High73 °F (Aug 28, 3:20 PM)100% (Aug 27, 6:20 AM)30.15 "Hg (Aug 27, 6:20 AM)
Low45 °F (Aug 27, 5:20 AM)43% (Aug 20, 2:50 PM)29.65 "Hg (Aug 26, 5:20 AM)
Average58 °F74%29.94 "Hg
* Reported Aug 17 7:20 PM — Sep 1 7:50 PM, Marl, Weather by CustomWeather, © 2014

Note: Actual official high and low records may vary slightly from our data, if they occured in-between our weather recording intervals... More about our weather records

Advertising

Marl weather history for previous 24 hours

 ConditionsComfort  
Time TempWeatherWind HumidityBarometerVisibility
7:50 PM
Sep 1
63 °FScattered clouds.2 mph68%30.12 "HgN/A
7:20 PM64 °FSunny.2 mph64%30.12 "Hg10 mi
6:20 PM64 °FPassing clouds.6 mph64%30.12 "HgN/A
5:50 PM64 °FPassing clouds.6 mph64%30.12 "HgN/A
5:20 PM66 °FPassing clouds.8 mph56%30.12 "HgN/A
4:50 PM66 °FPassing clouds.8 mph60%30.12 "HgN/A
4:20 PM64 °FPassing clouds.7 mph64%30.12 "HgN/A
3:50 PM64 °FPassing clouds.10 mph60%30.12 "HgN/A
3:20 PM64 °FPassing clouds.8 mph64%30.15 "HgN/A
2:50 PM63 °FPassing clouds.9 mph73%30.15 "HgN/A
2:20 PM64 °FScattered clouds.7 mph68%30.15 "HgN/A
1:50 PM61 °FScattered clouds.9 mph72%30.15 "HgN/A
1:20 PM63 °FScattered clouds.7 mph73%30.15 "HgN/A
12:50 PM63 °FScattered clouds.6 mph77%30.15 "HgN/A
12:20 PM61 °FScattered clouds.6 mph72%30.15 "HgN/A
11:50 AM59 °FScattered clouds.6 mph77%30.15 "HgN/A
11:20 AM61 °FScattered clouds.6 mph77%30.15 "HgN/A
10:50 AM59 °FScattered clouds.7 mph82%30.15 "HgN/A
10:20 AM57 °FPartly sunny.7 mph88%30.12 "HgN/A
9:50 AM55 °FFog.6 mph94%30.12 "Hg3 mi
9:20 AM55 °FFog.6 mph94%30.12 "Hg2 mi
8:50 AM54 °FFog.8 mph94%30.12 "Hg2 mi
8:20 AM54 °FPartly sunny.6 mph94%30.09 "Hg1 mi
7:50 AM54 °FFog.6 mph94%30.09 "Hg1 mi
7:20 AM54 °FFog.6 mph88%30.09 "Hg1 mi
6:50 AM54 °FFog.6 mph88%30.09 "Hg1 mi
6:20 AM54 °FFog.6 mph88%30.09 "Hg1 mi
5:53 AM52 °FFog.6 mph94%30.09 "Hg1 mi
5:20 AM52 °FMostly cloudy.6 mph88%30.09 "Hg4 mi
10:50 PM
Aug 31
54 °FClear.3 mph88%30.04 "Hg10 mi
10:20 PM55 °FPassing clouds.6 mph88%30.01 "HgN/A
9:50 PM55 °FPassing clouds.3 mph82%30.01 "HgN/A
9:20 PM55 °FClear.3 mph82%30.01 "Hg10 mi
8:50 PM55 °FSunny.3 mph82%30.01 "Hg10 mi
8:20 PM57 °FSunny.3 mph77%29.98 "Hg10 mi
Weather by CustomWeather, © 2014

See weather overviewHow to use our weather pages